Flag for Italy Weather past 2 weeks in Bologna, Italy

Now
70 °F

Passing clouds.


Feels Like: 70 °F
Forecast: 46 / 72 °F
Wind: 7 mph from West

Location: Bologna / Borgo Panigale

Current Time: Mar 30, 2015 at 2:58:00 PM

Latest Report: Mar 30, 2015 at 2:20 PM


Visibility: N/A

Pressure: 29.59 "Hg

Humidity: 50%

Dew point: 50 °F

Location of BolognaLocation

Historic Weather in Bologna — Graph

°F

Bologna temperature yesterday

Maximum temperature yesterday: 66 °F (at 2:50 PM)
Minimum temperature yesterday: 43 °F (at 6:20 AM)
Average temperature yesterday: 55 °F

Past Weeks' High & Low Weather Summary

 TemperatureHumidityPressure
High68 °F (Mar 30, 1:50 PM)100% (Mar 16, 4:50 AM)30.33 "Hg (Mar 16, 4:50 AM)
Low39 °F (Mar 19, 11:50 PM)26% (Mar 28, 4:50 PM)29.45 "Hg (Mar 25, 1:20 PM)
Average51 °F79%30.00 "Hg
* Reported Mar 15 12:20 PM — Mar 30 1:50 PM, Bologna, Weather by CustomWeather, © 2015

Note: Actual official high and low records may vary slightly from our data, if they occured in-between our weather recording intervals... More about our weather records

Advertising

Bologna weather history for previous 24 hours

 ConditionsComfort  
Time TempWeatherWind HumidityBarometerVisibility
1:50 PM
Mon, Mar 30
68 °FPassing clouds.5 mph56%29.62 "HgN/A
1:20 PM66 °FPassing clouds.7 mph60%29.62 "HgN/A
12:50 PM64 °FPassing clouds.7 mph64%29.62 "HgN/A
12:20 PM64 °FPassing clouds.6 mph60%29.62 "HgN/A
11:50 AM63 °FPassing clouds.6 mph59%29.65 "HgN/A
11:20 AM61 °FPassing clouds.6 mph63%29.65 "HgN/A
10:50 AM61 °FPassing clouds.6 mph55%29.65 "HgN/A
10:20 AM57 °FPassing clouds.5 mph67%29.65 "HgN/A
9:50 AM55 °FPassing clouds.5 mph77%29.68 "HgN/A
9:20 AM52 °FPassing clouds.5 mph88%29.68 "HgN/A
8:50 AM50 °FClear.2 mph88%29.68 "HgN/A
8:20 AM48 °FClear.3 mph94%29.65 "HgN/A
7:50 AM46 °FClear.3 mph93%29.65 "HgN/A
7:20 AM45 °FFog.5 mph100%29.62 "Hg5 mi
6:50 AM45 °FFog.2 mph93%29.65 "Hg4 mi
6:20 AM45 °FClear.3 mph100%29.65 "Hg5 mi
5:50 AM45 °FClear.2 mph100%29.65 "Hg10 mi
5:20 AM46 °FClear.2 mph93%29.65 "Hg10 mi
4:50 AM46 °FClear.5 mph93%29.65 "Hg10 mi
4:20 AM48 °FClear.2 mph87%29.65 "Hg10 mi
3:50 AM48 °FClear.2 mph87%29.65 "Hg10 mi
3:20 AM50 °FClear.3 mph82%29.68 "Hg10 mi
2:50 AM50 °FPassing clouds.3 mph88%29.68 "HgN/A
2:20 AM48 °FClear.5 mph94%29.68 "Hg10 mi
1:50 AM48 °FClear.1 mph94%29.68 "Hg10 mi
1:20 AM48 °FClear.1 mph94%29.71 "Hg10 mi
12:50 AM50 °FClear.3 mph88%29.71 "Hg10 mi
12:20 AM50 °FClear.2 mph88%29.71 "Hg10 mi
11:50 PM
Sun, Mar 29
52 °FClear.1 mph82%29.74 "Hg10 mi
11:20 PM52 °FClear.1 mph82%29.74 "Hg10 mi
10:50 PM52 °FPassing clouds.3 mph82%29.74 "HgN/A
10:20 PM52 °FClear.5 mph82%29.77 "Hg10 mi
9:50 PM52 °FClear.5 mph82%29.77 "Hg10 mi
9:20 PM54 °FClear.5 mph77%29.77 "Hg10 mi
8:50 PM55 °FClear.5 mph72%29.77 "Hg10 mi
8:20 PM57 °FSunny.6 mph67%29.80 "Hg10 mi
7:50 PM59 °FSunny.6 mph59%29.77 "Hg10 mi
7:20 PM61 °FSunny.6 mph55%29.80 "Hg10 mi
6:50 PM63 °FSunny.7 mph56%29.80 "Hg10 mi
6:20 PM63 °FSunny.7 mph49%29.77 "Hg10 mi
5:50 PM64 °FSunny.6 mph46%29.77 "Hg10 mi
5:20 PM64 °FPassing clouds.5 mph46%29.80 "HgN/A
4:50 PM64 °FPassing clouds.3 mph46%29.80 "HgN/A
4:20 PM66 °FPassing clouds.5 mph40%29.80 "HgN/A
3:50 PM66 °FPassing clouds.6 mph35%29.83 "HgN/A
3:20 PM66 °FPassing clouds.6 mph37%29.83 "HgN/A
2:50 PM66 °FPassing clouds.7 mph37%29.83 "HgN/A
2:20 PM64 °FPassing clouds.7 mph40%29.86 "HgN/A
Weather by CustomWeather, © 2015

See weather overviewHow to use our weather pages